(79) Eurynome
ephemeris date magn radius delta ra dec elong phase
Today19 Jul 202513.22.570 AU3.338 AU10h08m+08°53'34.7°13.0°
Opposition30 Apr 202611.62.905 AU1.898 AU14h33m-13°17'178.3°0.6°
(79) Eurynome - 2025-07-19
astro.vanbuitenen.nl


 
-1 year
-1 month
-1 day
Now
+1 day
+1 month
+1 year

The interactive orbit chart above shows the body's path through the solar system and its position at the given date. Green and blue lines are shown perpendicular to the ecliptic plane: Green if the path is above the ecliptic plane, blue if it is below. (Left-click and drag to rotate the view; Right-click and drag to move the view; Use scroll wheel to zoom in our out.)

The orbital elements of Eurynome are:

            e (Eccentricity)                : 0.1910968
            a (Semimajor axis)              : 2.4441040
            i (Inclination)                 : 4.61307
            Ω (Longitude of ascending node) : 206.50329
            ω (Argument of perihelion)      : 201.41444
            M (Mean anomaly)                : 75.70082
            Epoch                           : 2025 May 05

            L (Longitude of perihelion)     : 227.85461
            B (Latitude of perihelion)      : -1.68271
            P (Orbital period in years)     : 3.82            
        

The light curve chart below shows the estimated development of the minor planet's magnitude.


The all-sky chart below shows the path of the minor planet over the same period as the light curve. The current position is marked yellow.





The following chart shows the path of the minor planet in the next few days. The field of view is optimized for (~10x50) binoculars and finderscopes. A more printer-friendly version of the same chart can be found below.




Ephemerides:
Date       Time       RA (2000)    DEC (2000)    delta   radius  elong  phase   PA    magn
2025-07-19 00:00 UT   10 08 25.9   +08 53 47     3.338    2.570   34.7   13.0   114   13.2 
2025-07-19 03:54 UT   10 08 41.6   +08 52 30     3.340    2.570   34.7   13.0   114   13.2 
2025-07-20 00:00 UT   10 10 02.3   +08 45 47     3.348    2.572   34.2   12.8   114   13.2 
2025-07-21 00:00 UT   10 11 38.8   +08 37 44     3.357    2.573   33.7   12.6   114   13.2 
2025-07-22 00:00 UT   10 13 15.2   +08 29 38     3.365    2.575   33.1   12.5   114   13.2 
2025-07-23 00:00 UT   10 14 51.7   +08 21 30     3.374    2.577   32.6   12.3   115   13.2 
2025-07-24 00:00 UT   10 16 28.1   +08 13 19     3.383    2.579   32.1   12.1   115   13.2 
2025-07-25 00:00 UT   10 18 04.5   +08 05 05     3.391    2.581   31.5   11.9   115   13.2 
2025-07-26 00:00 UT   10 19 40.8   +07 56 49     3.400    2.583   31.0   11.7   115   13.2 
2025-07-27 00:00 UT   10 21 17.2   +07 48 30     3.408    2.585   30.5   11.5   115   13.2 
2025-07-28 00:00 UT   10 22 53.5   +07 40 09     3.417    2.587   29.9   11.3   115   13.2 
2025-07-29 00:00 UT   10 24 29.7   +07 31 46     3.425    2.589   29.4   11.1   115   13.2 
2025-07-30 00:00 UT   10 26 06.0   +07 23 20     3.433    2.591   28.9   10.9   115   13.2 
2025-07-31 00:00 UT   10 27 42.2   +07 14 52     3.441    2.592   28.3   10.7   116   13.2 
2025-08-01 00:00 UT   10 29 18.3   +07 06 21     3.449    2.594   27.8   10.5   116   13.2 
2025-08-02 00:00 UT   10 30 54.5   +06 57 49     3.456    2.596   27.3   10.3   116   13.2 
2025-08-03 00:00 UT   10 32 30.5   +06 49 14     3.464    2.598   26.7   10.1   116   13.2 
2025-08-04 00:00 UT   10 34 06.6   +06 40 37     3.471    2.600   26.2    9.9   116   13.2 
2025-08-05 00:00 UT   10 35 42.6   +06 31 58     3.479    2.602   25.7    9.7   116   13.2 
2025-08-06 00:00 UT   10 37 18.5   +06 23 17     3.486    2.604   25.1    9.5   116   13.2 
2025-08-07 00:00 UT   10 38 54.4   +06 14 35     3.493    2.606   24.6    9.3   117   13.2 
2025-08-08 00:00 UT   10 40 30.2   +06 05 50     3.500    2.607   24.1    9.1   117   13.2 


    Terminology:
            
    delta:  distance between minor planet and earth in AU
    radius: distance between minor planet and sun in AU
    magn:   magnitude (brightness) estimate    
    ra:     right ascension in hours (24h = 360deg)
    dec:    declination in degrees
    elong:  elongation in degrees (angle sun-earth-minor planet)    
    phase:  phase angle in degrees (angle sun-minor planet-earth)        
    AU:     Astronomical Unit (mean distance between earth and sun: 149597870.7 km
    

Orbital elements provided by the MPC (Minor Planet Center).
Calculations by a modified version of AAPlus, a C# implementation of the AA+ project by PJ Naughter from the algorithms presented in the book "Astronomical Algorithms" by Jean Meeus.
NGC2000 dso catalog and star labels from VizieR as provided by the Strasbourg astronomical Data Center.
Tycho2 catalog from the ESO archive.